FW2298 Weather Reports


Display with metric or nautical units.
time (UTC)temp
F
wind
direction
speed
MPH
gust
MPH
rain 1hr
in
rain 24hr
in
rain mn
in
humidity
%
barometer
mb
20260504185544 68 236 4.0 18.0 0.00 0.00 0.00 37 1004.3
20260504185045 68 242 3.0 18.0 0.00 0.00 0.00 36 1004.4
20260504184612 67 310 3.0 17.0 0.00 0.00 0.00 40 1004.5
20260504184047 67 279 4.0 13.0 0.00 0.00 0.00 41 1004.5
20260504183546 65 295 4.0 13.0 0.00 0.00 0.00 39 1004.4
20260504183056 66 316 5.0 19.0 0.00 0.00 0.00 38 1004.5
20260504182545 66 297 5.0 19.0 0.00 0.00 0.00 39 1004.5
20260504182046 66 281 8.0 21.0 0.00 0.00 0.00 39 1004.6
20260504181554 65 307 7.0 21.0 0.00 0.00 0.00 40 1004.7
20260504181045 65 314 4.0 13.0 0.00 0.00 0.00 41 1004.8
20260504180545 64 266 4.0 13.0 0.00 0.00 0.00 42 1004.8
20260504180059 64 350 3.0 12.0 0.00 0.00 0.00 44 1005.0
20260504175545 62 238 5.0 16.0 0.00 0.00 0.00 45 1005.1
20260504175042 60 277 6.0 16.0 0.00 0.00 0.00 45 1005.2
20260504174600 60 307 4.0 12.0 0.00 0.00 0.00 45 1005.1
20260504174045 60 307 6.0 19.0 0.00 0.00 0.00 46 1005.1
20260504173545 60 311 7.0 19.0 0.00 0.00 0.00 44 1005.2
20260504173103 60 274 8.0 19.0 0.00 0.00 0.00 45 1005.1
20260504172542 60 309 5.0 21.0 0.00 0.00 0.00 45 1005.1
20260504172045 61 281 9.0 21.0 0.00 0.00 0.00 44 1005.1
20260504171558 61 4 6.0 18.0 0.00 0.00 0.00 44 1005.0
20260504171046 61 279 8.0 19.0 0.00 0.00 0.00 44 1004.8
20260504170546 61 304 9.0 19.0 0.00 0.00 0.00 44 1005.0
20260504151048 61 180 4.0 14.0 0.00 0.00 0.00 42 1005.3
20260504150545 61 290 5.0 10.0 0.00 0.00 0.00 45 1005.2
20260504141045 60 276 4.0 10.0 0.00 0.00 0.00 43 1005.5
20260504140545 60 219 3.0 10.0 0.00 0.00 0.00 46 1005.5
20260504130542 55 0 0.0 3.0 0.00 0.00 0.00 57 1006.4
20260504110545 39 0 0.0 0.0 0.00 0.00 0.00 84 1007.4
20260504100545 39 0 0.0 1.0 0.00 0.00 0.00 80 1007.3
20260504081553 39 0 0.0 2.0 0.00 0.00 0.00 72 1007.3
20260504081043 39 134 1.0 2.0 0.00 0.00 0.00 71 1007.2
20260504080544 39 139 1.0 2.0 0.00 0.00 0.00 71 1007.3
20260504050541 33 143 1.0 2.0 0.00 0.00 0.00 79 1007.2
20260504045542 33 131 1.0 1.0 0.00 0.00 0.00 79 1007.3
20260504045043 33 116 0.0 1.0 0.00 0.00 0.00 78 1007.2
20260504044553 33 131 1.0 1.0 0.00 0.00 0.00 77 1007.2
20260504044044 33 129 0.0 2.0 0.00 0.00 0.00 77 1007.3
20260504043544 33 0 1.0 3.0 0.00 0.00 0.00 78 1007.3
20260504043052 34 0 0.0 3.0 0.00 0.00 0.00 77 1007.3
20260504042542 34 123 1.0 2.0 0.00 0.00 0.00 77 1007.3
20260504042045 34 150 0.0 1.0 0.00 0.00 0.00 76 1007.3
20260504041551 34 0 0.0 1.0 0.00 0.00 0.00 75 1007.3
20260504041040 34 0 0.0 2.0 0.00 0.00 0.00 75 1007.2
20260504040541 34 124 1.0 3.0 0.00 0.00 0.00 77 1007.2
20260504040104 34 129 1.0 3.0 0.00 0.00 0.00 77 1007.1
20260504035544 34 136 2.0 3.0 0.00 0.00 0.00 77 1007.1
20260504035042 34 124 2.0 3.0 0.00 0.00 0.00 77 1007.0
20260504034558 35 126 1.0 2.0 0.00 0.00 0.00 76 1007.0
20260504034043 35 131 0.0 1.0 0.00 0.00 0.00 76 1007.1
20260504033541 35 146 0.0 0.0 0.00 0.00 0.00 76 1007.1
20260504033126 35 0 0.0 1.0 0.00 0.00 0.00 74 1007.1
20260504032544 35 0 0.0 1.0 0.00 0.00 0.00 73 1007.1
20260504032043 36 0 0.0 0.0 0.00 0.00 0.00 72 1007.1
20260504031549 36 0 0.0 1.0 0.00 0.00 0.00 71 1007.0
20260504031041 36 0 0.0 1.0 0.00 0.00 0.00 70 1007.0
20260504030543 37 146 0.0 0.0 0.00 0.00 0.00 69 1006.9
20260504030054 37 146 0.0 0.0 0.00 0.00 0.00 68 1006.9
20260504025544 37 0 0.0 1.0 0.00 0.04 0.00 68 1006.9
20260504025041 37 0 0.0 1.0 0.00 0.04 0.00 68 1007.0
20260504024550 38 0 0.0 1.0 0.00 0.04 0.00 68 1007.1
20260504024044 38 0 0.0 0.0 0.00 0.04 0.00 66 1007.1
20260504023542 39 0 0.0 0.0 0.00 0.04 0.00 65 1007.1
20260504023100 40 0 0.0 0.0 0.00 0.04 0.00 63 1007.2
20260504022543 40 0 0.0 1.0 0.00 0.04 0.00 61 1007.2
20260504022043 41 0 0.0 3.0 0.00 0.04 0.00 59 1007.2
20260504021554 41 0 0.0 3.0 0.00 0.04 0.00 59 1007.2
20260504021044 41 314 0.0 3.0 0.00 0.04 0.00 59 1007.1
20260504020545 41 306 0.0 1.0 0.00 0.04 0.00 60 1007.2
20260504020058 41 0 0.0 1.0 0.00 0.04 0.00 59 1007.1
20260504015545 41 0 0.0 3.0 0.00 0.10 0.00 59 1007.1
20260504015044 41 305 0.0 3.0 0.00 0.10 0.00 58 1007.1
20260504014551 41 0 0.0 1.0 0.00 0.10 0.00 59 1007.0
20260504014045 42 0 0.0 1.0 0.00 0.10 0.00 59 1007.0
20260504013544 41 300 0.0 1.0 0.00 0.10 0.00 59 1007.0
20260504013104 42 0 0.0 1.0 0.00 0.10 0.00 59 1007.0
20260504012541 42 0 0.0 2.0 0.00 0.10 0.00 59 1007.0
20260504012042 42 0 0.0 2.0 0.00 0.10 0.00 58 1007.0
20260504011553 42 300 0.0 2.0 0.00 0.10 0.00 58 1006.9
20260504011043 42 304 0.0 2.0 0.00 0.10 0.00 58 1006.9
20260504010545 42 0 0.0 1.0 0.00 0.10 0.00 58 1006.9
20260504010059 42 288 0.0 1.0 0.00 0.10 0.00 58 1006.8
20260504005545 42 0 0.0 2.0 0.00 0.10 0.00 58 1006.7
20260504005042 42 290 0.0 2.0 0.00 0.10 0.00 57 1006.8
20260504004605 42 0 0.0 2.0 0.00 0.10 0.00 57 1006.7
20260504004043 43 300 0.0 2.0 0.00 0.10 0.00 57 1006.4
20260504003544 43 288 0.0 3.0 0.00 0.10 0.00 56 1006.4
20260504003051 43 301 1.0 4.0 0.00 0.10 0.00 56 1006.4
20260504002542 43 300 1.0 4.0 0.00 0.10 0.00 56 1006.3
20260504002045 43 314 1.0 4.0 0.00 0.10 0.00 56 1006.2
20260504001604 43 334 0.0 3.0 0.00 0.10 0.00 56 1006.2
20260504001042 44 284 1.0 3.0 0.00 0.10 0.00 55 1006.2
20260504000541 44 0 0.0 2.0 0.00 0.10 0.00 54 1006.1
20260504000057 45 302 1.0 4.0 0.00 0.10 0.00 52 1006.1
20260503235542 45 277 1.0 6.0 0.00 0.10 0.00 51 1006.1
20260503235044 45 305 2.0 6.0 0.00 0.10 0.00 50 1006.0
20260503234549 46 318 3.0 7.0 0.00 0.10 0.00 50 1005.9
20260503234042 46 303 3.0 8.0 0.00 0.10 0.00 49 1005.9
20260503233547 46 311 3.0 8.0 0.00 0.10 0.00 49 1005.9
20260503233050 46 293 4.0 9.0 0.00 0.10 0.00 48 1005.8
20260503232545 46 320 5.0 10.0 0.00 0.10 0.00 48 1005.8
20260503232044 46 289 3.0 10.0 0.00 0.10 0.00 48 1005.8
20260503231556 47 314 5.0 11.0 0.00 0.10 0.00 47 1005.7
20260503231042 47 17 4.0 13.0 0.00 0.10 0.00 47 1005.8
20260503230542 47 304 6.0 13.0 0.00 0.10 0.00 46 1005.8
20260503230057 48 311 8.0 13.0 0.00 0.10 0.00 45 1005.8
20260503225541 48 293 6.0 14.0 0.00 0.11 0.00 45 1005.7
20260503225045 48 347 5.0 14.0 0.00 0.11 0.00 46 1005.7
20260503224548 48 335 8.0 14.0 0.00 0.11 0.00 44 1005.6
20260503224042 49 302 5.0 18.0 0.00 0.11 0.00 44 1005.5
20260503223544 49 343 8.0 18.0 0.00 0.11 0.00 44 1005.6
20260503223058 49 333 9.0 23.0 0.00 0.11 0.00 44 1005.5
20260503222541 49 317 7.0 23.0 0.00 0.11 0.00 43 1005.5
20260503222041 50 314 7.0 23.0 0.00 0.11 0.00 43 1005.4
20260503221553 49 311 4.0 15.0 0.00 0.11 0.00 45 1005.4
20260503221042 49 316 6.0 15.0 0.00 0.11 0.00 44 1005.3
20260503220542 49 283 5.0 11.0 0.00 0.11 0.00 45 1005.3
20260503220056 48 314 4.0 13.0 0.00 0.11 0.00 47 1005.3
20260503215543 48 307 7.0 15.0 0.00 0.11 0.00 46 1005.3
20260503215041 47 327 7.0 15.0 0.00 0.11 0.00 46 1005.2
20260503214551 48 337 7.0 14.0 0.00 0.11 0.00 46 1005.2
20260503214045 48 331 7.0 14.0 0.00 0.11 0.00 45 1005.2
20260503213544 48 22 5.0 13.0 0.00 0.11 0.00 46 1005.2
20260503213104 48 294 6.0 20.0 0.00 0.11 0.00 45 1005.3
20260503212542 48 334 7.0 20.0 0.00 0.11 0.00 45 1005.3
20260503212042 48 299 8.0 17.0 0.00 0.11 0.00 46 1005.2
20260503211556 48 312 7.0 17.0 0.00 0.11 0.00 46 1005.2
20260503211048 48 23 5.0 15.0 0.00 0.11 0.00 46 1005.2
20260503210545 48 317 8.0 15.0 0.00 0.11 0.00 45 1005.1
20260503210113 49 275 8.0 15.0 0.00 0.11 0.00 45 1005.0
20260503205545 48 354 7.0 22.0 0.00 0.20 0.00 46 1005.1
20260503205043 47 281 9.0 22.0 0.00 0.20 0.00 46 1005.1
20260503204555 47 319 8.0 17.0 0.00 0.20 0.00 46 1005.0
20260503204042 47 340 9.0 19.0 0.00 0.20 0.00 48 1005.1
20260503203543 47 335 8.0 19.0 0.00 0.20 0.00 47 1005.1
20260503203105 47 300 9.0 19.0 0.00 0.20 0.00 46 1005.1
20260503202542 47 290 7.0 19.0 0.00 0.20 0.00 48 1005.1
20260503202041 47 48 10.0 19.0 0.00 0.20 0.00 47 1005.0
20260503201548 47 347 8.0 19.0 0.00 0.20 0.00 47 1005.0
20260503201042 47 15 7.0 19.0 0.00 0.20 0.00 47 1004.9
20260503200542 48 299 10.0 18.0 0.00 0.20 0.00 45 1004.8
20260503200100 48 335 7.0 15.0 0.00 0.20 0.00 44 1004.7
20260503195541 48 304 8.0 20.0 0.00 0.20 0.00 44 1004.7
20260503195042 48 309 9.0 20.0 0.00 0.20 0.00 43 1004.8
20260503194553 48 281 10.0 18.0 0.00 0.20 0.00 43 1004.7
20260503194042 49 278 9.0 18.0 0.00 0.20 0.00 42 1004.7
20260503193542 49 359 7.0 18.0 0.00 0.20 0.00 44 1004.7
20260503193055 49 322 10.0 18.0 0.00 0.20 0.00 42 1004.8
20260503192545 50 341 7.0 15.0 0.00 0.20 0.00 41 1004.7
20260503192043 50 324 9.0 18.0 0.00 0.20 0.00 42 1004.7
20260503191615 49 323 9.0 22.0 0.00 0.20 0.00 44 1004.8
20260503191046 49 321 9.0 25.0 0.00 0.20 0.00 45 1004.7
20260503190546 49 337 13.0 25.0 0.00 0.20 0.00 43 1004.9
20260503190052 49 307 12.0 21.0 0.00 0.20 0.00 45 1004.8